owner,sensor,date,latitude,longitude,vertical_datum,sea_water_speed,direction_of_sea_water_velocity,upward_sea_water_velocity,qcFlag
Anadarko,ioos:station:wmo:42373:1,2022-03-01T00:13:00Z,27.3539,-94.6254,79.0,20.7,64.2,-9999.0,'111111111,111111111,999999991'
Anadarko,ioos:station:wmo:42373:1,2022-03-01T00:33:00Z,27.3539,-94.6254,79.0,20.5,66.7,-9999.0,'111111111,111111111,999999991'
Anadarko,ioos:station:wmo:42373:1,2022-03-01T00:53:00Z,27.3539,-94.6254,79.0,20.8,65.3,-9999.0,'111111111,111111111,999999991'
Anadarko,ioos:station:wmo:42373:1,2022-03-01T01:13:00Z,27.3539,-94.6254,79.0,22.9,69.0,-9999.0,'111111111,111111111,999999991'
Anadarko,ioos:station:wmo:42373:1,2022-03-01T01:33:00Z,27.3539,-94.6254,79.0,23.2,73.7,-9999.0,'111111111,111111111,999999991'
Anadarko,ioos:station:wmo:42373:1,2022-03-01T01:53:00Z,27.3539,-94.6254,79.0,23.8,72.6,-9999.0,'111111111,111111111,999999991'
Anadarko,ioos:station:wmo:42373:1,2022-03-01T02:13:00Z,27.3539,-94.6254,79.0,24.7,76.6,-9999.0,'111111111,111111111,999999991'
Anadarko,ioos:station:wmo:42373:1,2022-03-01T02:33:00Z,27.3539,-94.6254,79.0,25.4,75.9,-9999.0,'111111111,111111111,999999991'
Anadarko,ioos:station:wmo:42373:1,2022-03-01T02:53:00Z,27.3539,-94.6254,79.0,25.8,71.9,-9999.0,'111111111,111111111,999999991'
Anadarko,ioos:station:wmo:42373:1,2022-03-01T03:13:00Z,27.3539,-94.6254,79.0,24.8,71.9,-9999.0,'111111111,111111111,999999991'
Anadarko,ioos:station:wmo:42373:1,2022-03-01T03:33:00Z,27.3539,-94.6254,79.0,23.6,70.7,-9999.0,'111111111,111111111,999999991'
Anadarko,ioos:station:wmo:42373:1,2022-03-01T03:53:00Z,27.3539,-94.6254,79.0,24.0,70.3,-9999.0,'111111111,111111111,999999991'
Anadarko,ioos:station:wmo:42373:1,2022-03-01T04:13:00Z,27.3539,-94.6254,79.0,24.4,70.4,-9999.0,'111111111,111111111,999999991'
Anadarko,ioos:station:wmo:42373:1,2022-03-01T04:33:00Z,27.3539,-94.6254,79.0,24.0,72.3,-9999.0,'111111111,111111111,999999991'
Anadarko,ioos:station:wmo:42373:1,2022-03-01T04:53:00Z,27.3539,-94.6254,79.0,24.5,72.9,-9999.0,'111111111,111111111,999999991'
Anadarko,ioos:station:wmo:42373:1,2022-03-01T05:13:00Z,27.3539,-94.6254,79.0,25.2,72.0,-9999.0,'111111111,111111111,999999991'
Anadarko,ioos:station:wmo:42373:1,2022-03-01T05:33:00Z,27.3539,-94.6254,79.0,24.9,74.2,-9999.0,'111111111,111111111,999999991'
Anadarko,ioos:station:wmo:42373:1,2022-03-01T05:53:00Z,27.3539,-94.6254,79.0,23.5,75.0,-9999.0,'111111111,111111111,999999991'
Anadarko,ioos:station:wmo:42373:1,2022-03-01T06:13:00Z,27.3539,-94.6254,79.0,24.0,76.3,-9999.0,'111111111,111111111,999999991'
Anadarko,ioos:station:wmo:42373:1,2022-03-01T06:33:00Z,27.3539,-94.6254,79.0,22.4,79.4,-9999.0,'111111111,111111111,999999991'
Anadarko,ioos:station:wmo:42373:1,2022-03-01T06:53:00Z,27.3539,-94.6254,79.0,21.9,76.0,-9999.0,'111111111,111111111,999999991'
Anadarko,ioos:station:wmo:42373:1,2022-03-01T07:13:00Z,27.3539,-94.6254,79.0,22.6,70.0,-9999.0,'111111111,111111111,999999991'
Anadarko,ioos:station:wmo:42373:1,2022-03-01T07:33:00Z,27.3539,-94.6254,79.0,23.2,71.6,-9999.0,'111111111,111111111,999999991'
Anadarko,ioos:station:wmo:42373:1,2022-03-01T07:53:00Z,27.3539,-94.6254,79.0,23.3,73.5,-9999.0,'111111111,111111111,999999991'
Anadarko,ioos:station:wmo:42373:1,2022-03-01T08:13:00Z,27.3539,-94.6254,79.0,23.7,68.2,-9999.0,'111111111,111111111,999999991'
Anadarko,ioos:station:wmo:42373:1,2022-03-01T08:33:00Z,27.3539,-94.6254,79.0,23.8,65.9,-9999.0,'111111111,111111111,999999991'
Anadarko,ioos:station:wmo:42373:1,2022-03-01T08:53:00Z,27.3539,-94.6254,79.0,22.5,70.8,-9999.0,'111111111,111111111,999999991'
Anadarko,ioos:station:wmo:42373:1,2022-03-01T09:13:00Z,27.3539,-94.6254,79.0,23.0,72.8,-9999.0,'111111111,111111111,999999991'
Anadarko,ioos:station:wmo:42373:1,2022-03-01T09:33:00Z,27.3539,-94.6254,79.0,22.3,73.3,-9999.0,'111111111,111111111,999999991'
Anadarko,ioos:station:wmo:42373:1,2022-03-01T09:53:00Z,27.3539,-94.6254,79.0,22.2,74.3,-9999.0,'111111111,111111111,999999991'
Anadarko,ioos:station:wmo:42373:1,2022-03-01T10:13:00Z,27.3539,-94.6254,79.0,23.4,71.6,-9999.0,'111111111,111111111,999999991'
Anadarko,ioos:station:wmo:42373:1,2022-03-01T10:33:00Z,27.3539,-94.6254,79.0,22.9,70.4,-9999.0,'111111111,111111111,999999991'
Anadarko,ioos:station:wmo:42373:1,2022-03-01T10:53:00Z,27.3539,-94.6254,79.0,21.9,71.4,-9999.0,'111111111,111111111,999999991'
Anadarko,ioos:station:wmo:42373:1,2022-03-01T11:13:00Z,27.3539,-94.6254,79.0,21.1,68.3,-9999.0,'111111111,111111111,999999991'
Anadarko,ioos:station:wmo:42373:1,2022-03-01T11:33:00Z,27.3539,-94.6254,79.0,19.9,64.5,-9999.0,'111111111,111111111,999999991'
Anadarko,ioos:station:wmo:42373:1,2022-03-01T11:53:00Z,27.3539,-94.6254,79.0,18.0,66.4,-9999.0,'111111111,111111111,999999991'
Anadarko,ioos:station:wmo:42373:1,2022-03-01T12:13:00Z,27.3539,-94.6254,79.0,18.8,62.5,-9999.0,'111111111,111111111,999999991'
Anadarko,ioos:station:wmo:42373:1,2022-03-01T12:33:00Z,27.3539,-94.6254,79.0,18.6,62.7,-9999.0,'111111111,111111111,999999991'
Anadarko,ioos:station:wmo:42373:1,2022-03-01T12:53:00Z,27.3539,-94.6254,79.0,18.2,63.3,-9999.0,'111111111,111111111,999999991'
Anadarko,ioos:station:wmo:42373:1,2022-03-01T13:13:00Z,27.3539,-94.6254,79.0,18.3,67.9,-9999.0,'111111111,111111111,999999991'
Anadarko,ioos:station:wmo:42373:1,2022-03-01T13:33:00Z,27.3539,-94.6254,79.0,18.6,68.5,-9999.0,'111111111,111111111,999999991'
Anadarko,ioos:station:wmo:42373:1,2022-03-01T13:53:00Z,27.3539,-94.6254,79.0,17.6,70.4,-9999.0,'111111111,111111111,999999991'
Anadarko,ioos:station:wmo:42373:1,2022-03-01T14:13:00Z,27.3539,-94.6254,79.0,17.7,71.6,-9999.0,'111111111,111111111,999999991'
Anadarko,ioos:station:wmo:42373:1,2022-03-01T14:33:00Z,27.3539,-94.6254,79.0,18.8,68.1,-9999.0,'111111111,111111111,999999991'
Anadarko,ioos:station:wmo:42373:1,2022-03-01T14:53:00Z,27.3539,-94.6254,79.0,17.5,67.8,-9999.0,'111111111,111111111,999999991'
Anadarko,ioos:station:wmo:42373:1,2022-03-01T15:13:00Z,27.3539,-94.6254,79.0,17.7,63.4,-9999.0,'111111111,111111111,999999991'
Anadarko,ioos:station:wmo:42373:1,2022-03-01T15:33:00Z,27.3539,-94.6254,79.0,17.3,57.8,-9999.0,'111111111,111111111,999999991'
Anadarko,ioos:station:wmo:42373:1,2022-03-01T15:53:00Z,27.3539,-94.6254,79.0,17.8,55.1,-9999.0,'111111111,111111111,999999991'
Anadarko,ioos:station:wmo:42373:1,2022-03-01T16:13:00Z,27.3539,-94.6254,79.0,17.5,54.0,-9999.0,'111111111,111111111,999999991'
Anadarko,ioos:station:wmo:42373:1,2022-03-01T16:33:00Z,27.3539,-94.6254,79.0,18.7,51.3,-9999.0,'111111111,111111111,999999991'
Anadarko,ioos:station:wmo:42373:1,2022-03-01T16:53:00Z,27.3539,-94.6254,79.0,18.6,48.5,-9999.0,'111111111,111111111,999999991'
Anadarko,ioos:station:wmo:42373:1,2022-03-01T17:13:00Z,27.3539,-94.6254,79.0,18.6,47.4,-9999.0,'111111111,111111111,999999991'
Anadarko,ioos:station:wmo:42373:1,2022-03-01T17:33:00Z,27.3539,-94.6254,79.0,20.3,47.6,-9999.0,'111111111,111111111,999999991'
Anadarko,ioos:station:wmo:42373:1,2022-03-01T17:53:00Z,27.3539,-94.6254,79.0,19.7,46.8,-9999.0,'111111111,111111111,999999991'
Anadarko,ioos:station:wmo:42373:1,2022-03-01T18:13:00Z,27.3539,-94.6254,79.0,18.8,48.7,-9999.0,'111111111,111111111,999999991'
Anadarko,ioos:station:wmo:42373:1,2022-03-01T18:33:00Z,27.3539,-94.6254,79.0,20.2,42.4,-9999.0,'111111111,111111111,999999991'
Anadarko,ioos:station:wmo:42373:1,2022-03-01T18:53:00Z,27.3539,-94.6254,79.0,18.7,45.4,-9999.0,'111111111,111111111,999999991'
Anadarko,ioos:station:wmo:42373:1,2022-03-01T19:13:00Z,27.3539,-94.6254,79.0,18.4,44.1,-9999.0,'111111111,111111111,999999991'
Anadarko,ioos:station:wmo:42373:1,2022-03-01T19:33:00Z,27.3539,-94.6254,79.0,18.0,47.3,-9999.0,'111111111,111111111,999999991'
Anadarko,ioos:station:wmo:42373:1,2022-03-01T19:53:00Z,27.3539,-94.6254,79.0,18.6,47.4,-9999.0,'111111111,111111111,999999991'
Anadarko,ioos:station:wmo:42373:1,2022-03-01T20:13:00Z,27.3539,-94.6254,79.0,20.3,33.8,-9999.0,'111111111,111111111,999999991'
Anadarko,ioos:station:wmo:42373:1,2022-03-01T20:33:00Z,27.3539,-94.6254,79.0,20.7,38.9,-9999.0,'111111111,111111111,999999991'
Anadarko,ioos:station:wmo:42373:1,2022-03-01T20:53:00Z,27.3539,-94.6254,79.0,20.1,43.0,-9999.0,'111111111,111111111,999999991'
Anadarko,ioos:station:wmo:42373:1,2022-03-01T21:13:00Z,27.3539,-94.6254,79.0,20.5,46.2,-9999.0,'111111111,111111111,999999991'
Anadarko,ioos:station:wmo:42373:1,2022-03-01T21:33:00Z,27.3539,-94.6254,79.0,21.6,47.8,-9999.0,'111111111,111111111,999999991'
Anadarko,ioos:station:wmo:42373:1,2022-03-01T21:53:00Z,27.3539,-94.6254,79.0,24.5,62.8,-9999.0,'111111111,111111111,999999991'
Anadarko,ioos:station:wmo:42373:1,2022-03-01T22:13:00Z,27.3539,-94.6254,79.0,23.5,69.9,-9999.0,'111111111,111111111,999999991'
Anadarko,ioos:station:wmo:42373:1,2022-03-01T22:33:00Z,27.3539,-94.6254,79.0,25.1,70.4,-9999.0,'111111111,111111111,999999991'
Anadarko,ioos:station:wmo:42373:1,2022-03-01T22:53:00Z,27.3539,-94.6254,79.0,26.1,71.2,-9999.0,'111111111,111111111,999999991'
Anadarko,ioos:station:wmo:42373:1,2022-03-01T23:13:00Z,27.3539,-94.6254,79.0,27.9,76.8,-9999.0,'111111111,111111111,999999991'
Anadarko,ioos:station:wmo:42373:1,2022-03-01T23:33:00Z,27.3539,-94.6254,79.0,29.9,77.3,-9999.0,'111111111,111111111,999999991'
Anadarko,ioos:station:wmo:42373:1,2022-03-01T23:53:00Z,27.3539,-94.6254,79.0,30.4,80.5,-9999.0,'111111111,111111111,999999991'
Anadarko,ioos:station:wmo:42373:1,2022-03-02T00:13:00Z,27.3539,-94.6254,79.0,31.8,86.4,-9999.0,'111111111,111111111,999999991'
Anadarko,ioos:station:wmo:42373:1,2022-03-02T00:33:00Z,27.3539,-94.6254,79.0,31.9,87.7,-9999.0,'111111111,111111111,999999991'
Anadarko,ioos:station:wmo:42373:1,2022-03-02T00:53:00Z,27.3539,-94.6254,79.0,32.3,90.7,-9999.0,'111111111,111111111,999999991'
Anadarko,ioos:station:wmo:42373:1,2022-03-02T01:13:00Z,27.3539,-94.6254,79.0,34.9,93.5,-9999.0,'111111111,111111111,999999991'
Anadarko,ioos:station:wmo:42373:1,2022-03-02T01:33:00Z,27.3539,-94.6254,79.0,35.4,93.6,-9999.0,'111111111,111111111,999999991'
Anadarko,ioos:station:wmo:42373:1,2022-03-02T01:53:00Z,27.3539,-94.6254,79.0,35.1,91.3,-9999.0,'111111111,111111111,999999991'
Anadarko,ioos:station:wmo:42373:1,2022-03-02T02:13:00Z,27.3539,-94.6254,79.0,35.5,94.2,-9999.0,'111111111,111111111,999999991'
Anadarko,ioos:station:wmo:42373:1,2022-03-02T02:33:00Z,27.3539,-94.6254,79.0,35.5,94.7,-9999.0,'111111111,111111111,999999991'
Anadarko,ioos:station:wmo:42373:1,2022-03-02T02:53:00Z,27.3539,-94.6254,79.0,35.1,96.1,-9999.0,'111111111,111111111,999999991'
Anadarko,ioos:station:wmo:42373:1,2022-03-02T03:13:00Z,27.3539,-94.6254,79.0,35.1,99.8,-9999.0,'111111111,111111111,999999991'
Anadarko,ioos:station:wmo:42373:1,2022-03-02T03:33:00Z,27.3539,-94.6254,79.0,36.5,100.7,-9999.0,'111111111,111111111,999999991'
Anadarko,ioos:station:wmo:42373:1,2022-03-02T03:53:00Z,27.3539,-94.6254,79.0,36.0,102.0,-9999.0,'111111111,111111111,999999991'
Anadarko,ioos:station:wmo:42373:1,2022-03-02T04:13:00Z,27.3539,-94.6254,79.0,34.8,102.4,-9999.0,'111111111,111111111,999999991'
Anadarko,ioos:station:wmo:42373:1,2022-03-02T04:33:00Z,27.3539,-94.6254,79.0,34.7,103.0,-9999.0,'111111111,111111111,999999991'
Anadarko,ioos:station:wmo:42373:1,2022-03-02T04:53:00Z,27.3539,-94.6254,79.0,32.7,102.7,-9999.0,'111111111,111111111,999999991'
Anadarko,ioos:station:wmo:42373:1,2022-03-02T05:13:00Z,27.3539,-94.6254,79.0,32.1,101.7,-9999.0,'111111111,111111111,999999991'
Anadarko,ioos:station:wmo:42373:1,2022-03-02T05:33:00Z,27.3539,-94.6254,79.0,31.6,102.4,-9999.0,'111111111,111111111,999999991'
Anadarko,ioos:station:wmo:42373:1,2022-03-02T05:53:00Z,27.3539,-94.6254,79.0,30.8,102.4,-9999.0,'111111111,111111111,999999991'
Anadarko,ioos:station:wmo:42373:1,2022-03-02T06:13:00Z,27.3539,-94.6254,79.0,30.0,100.6,-9999.0,'111111111,111111111,999999991'
Anadarko,ioos:station:wmo:42373:1,2022-03-02T06:33:00Z,27.3539,-94.6254,79.0,28.8,100.8,-9999.0,'111111111,111111111,999999991'
Anadarko,ioos:station:wmo:42373:1,2022-03-02T06:53:00Z,27.3539,-94.6254,79.0,27.8,98.3,-9999.0,'111111111,111111111,999999991'
Anadarko,ioos:station:wmo:42373:1,2022-03-02T07:13:00Z,27.3539,-94.6254,79.0,27.5,97.7,-9999.0,'111111111,111111111,999999991'
Anadarko,ioos:station:wmo:42373:1,2022-03-02T07:33:00Z,27.3539,-94.6254,79.0,28.4,106.6,-9999.0,'111111111,111111111,999999991'
Anadarko,ioos:station:wmo:42373:1,2022-03-02T07:53:00Z,27.3539,-94.6254,79.0,28.3,102.5,-9999.0,'111111111,111111111,999999991'
Anadarko,ioos:station:wmo:42373:1,2022-03-02T08:13:00Z,27.3539,-94.6254,79.0,28.1,100.5,-9999.0,'111111111,111111111,999999991'
Anadarko,ioos:station:wmo:42373:1,2022-03-02T08:33:00Z,27.3539,-94.6254,79.0,27.5,102.2,-9999.0,'111111111,111111111,999999991'
Anadarko,ioos:station:wmo:42373:1,2022-03-02T08:53:00Z,27.3539,-94.6254,79.0,27.6,105.1,-9999.0,'111111111,111111111,999999991'
Anadarko,ioos:station:wmo:42373:1,2022-03-02T09:13:00Z,27.3539,-94.6254,79.0,26.7,99.7,-9999.0,'111111111,111111111,999999991'
Anadarko,ioos:station:wmo:42373:1,2022-03-02T09:33:00Z,27.3539,-94.6254,79.0,26.7,99.9,-9999.0,'111111111,111111111,999999991'
Anadarko,ioos:station:wmo:42373:1,2022-03-02T09:53:00Z,27.3539,-94.6254,79.0,26.1,99.2,-9999.0,'111111111,111111111,999999991'
Anadarko,ioos:station:wmo:42373:1,2022-03-02T10:13:00Z,27.3539,-94.6254,79.0,26.3,94.4,-9999.0,'111111111,111111111,999999991'
Anadarko,ioos:station:wmo:42373:1,2022-03-02T10:33:00Z,27.3539,-94.6254,79.0,22.2,98.5,-9999.0,'111111111,111111111,999999991'
Anadarko,ioos:station:wmo:42373:1,2022-03-02T10:53:00Z,27.3539,-94.6254,79.0,22.7,96.3,-9999.0,'111111111,111111111,999999991'
Anadarko,ioos:station:wmo:42373:1,2022-03-02T11:13:00Z,27.3539,-94.6254,79.0,22.6,99.4,-9999.0,'111111111,111111111,999999991'
Anadarko,ioos:station:wmo:42373:1,2022-03-02T11:33:00Z,27.3539,-94.6254,79.0,21.5,102.6,-9999.0,'111111111,111111111,999999991'
Anadarko,ioos:station:wmo:42373:1,2022-03-02T11:53:00Z,27.3539,-94.6254,79.0,21.6,90.0,-9999.0,'111111111,111111111,999999991'
Anadarko,ioos:station:wmo:42373:1,2022-03-02T12:13:00Z,27.3539,-94.6254,79.0,20.0,93.7,-9999.0,'111111111,111111111,999999991'
Anadarko,ioos:station:wmo:42373:1,2022-03-02T12:33:00Z,27.3539,-94.6254,79.0,19.9,90.0,-9999.0,'111111111,111111111,999999991'
Anadarko,ioos:station:wmo:42373:1,2022-03-02T12:53:00Z,27.3539,-94.6254,79.0,19.2,89.7,-9999.0,'111111111,111111111,999999991'
Anadarko,ioos:station:wmo:42373:1,2022-03-02T13:13:00Z,27.3539,-94.6254,79.0,19.5,89.7,-9999.0,'111111111,111111111,999999991'
Anadarko,ioos:station:wmo:42373:1,2022-03-02T13:33:00Z,27.3539,-94.6254,79.0,20.0,83.1,-9999.0,'111111111,111111111,999999991'
Anadarko,ioos:station:wmo:42373:1,2022-03-02T13:53:00Z,27.3539,-94.6254,79.0,19.7,82.1,-9999.0,'111111111,111111111,999999991'
Anadarko,ioos:station:wmo:42373:1,2022-03-02T14:13:00Z,27.3539,-94.6254,79.0,20.0,75.8,-9999.0,'111111111,111111111,999999991'
Anadarko,ioos:station:wmo:42373:1,2022-03-02T14:33:00Z,27.3539,-94.6254,79.0,19.5,72.7,-9999.0,'111111111,111111111,999999991'
Anadarko,ioos:station:wmo:42373:1,2022-03-02T14:53:00Z,27.3539,-94.6254,79.0,19.0,65.5,-9999.0,'111111111,111111111,999999991'
Anadarko,ioos:station:wmo:42373:1,2022-03-02T15:13:00Z,27.3539,-94.6254,79.0,20.1,64.3,-9999.0,'111111111,111111111,999999991'
Anadarko,ioos:station:wmo:42373:1,2022-03-02T15:33:00Z,27.3539,-94.6254,79.0,20.8,64.9,-9999.0,'111111111,111111111,999999991'
Anadarko,ioos:station:wmo:42373:1,2022-03-02T15:53:00Z,27.3539,-94.6254,79.0,19.8,69.9,-9999.0,'111111111,111111111,999999991'
Anadarko,ioos:station:wmo:42373:1,2022-03-02T16:13:00Z,27.3539,-94.6254,79.0,20.3,67.1,-9999.0,'111111111,111111111,999999991'
Anadarko,ioos:station:wmo:42373:1,2022-03-02T16:33:00Z,27.3539,-94.6254,79.0,19.9,61.1,-9999.0,'111111111,111111111,999999991'
Anadarko,ioos:station:wmo:42373:1,2022-03-02T16:53:00Z,27.3539,-94.6254,79.0,20.1,58.4,-9999.0,'111111111,111111111,999999991'
Anadarko,ioos:station:wmo:42373:1,2022-03-02T17:13:00Z,27.3539,-94.6254,79.0,20.2,56.9,-9999.0,'111111111,111111111,999999991'
Anadarko,ioos:station:wmo:42373:1,2022-03-02T17:33:00Z,27.3539,-94.6254,79.0,20.5,56.5,-9999.0,'111111111,111111111,999999991'
Anadarko,ioos:station:wmo:42373:1,2022-03-02T17:53:00Z,27.3539,-94.6254,79.0,20.6,63.2,-9999.0,'111111111,111111111,999999991'
Anadarko,ioos:station:wmo:42373:1,2022-03-02T18:13:00Z,27.3539,-94.6254,79.0,21.7,59.5,-9999.0,'111111111,111111111,999999991'
Anadarko,ioos:station:wmo:42373:1,2022-03-02T18:33:00Z,27.3539,-94.6254,79.0,22.0,58.5,-9999.0,'111111111,111111111,999999991'
Anadarko,ioos:station:wmo:42373:1,2022-03-02T18:53:00Z,27.3539,-94.6254,79.0,22.5,59.2,-9999.0,'111111111,111111111,999999991'
Anadarko,ioos:station:wmo:42373:1,2022-03-02T19:13:00Z,27.3539,-94.6254,79.0,23.0,52.6,-9999.0,'111111111,111111111,999999991'
Anadarko,ioos:station:wmo:42373:1,2022-03-02T19:33:00Z,27.3539,-94.6254,79.0,23.1,55.1,-9999.0,'111111111,111111111,999999991'
Anadarko,ioos:station:wmo:42373:1,2022-03-02T19:53:00Z,27.3539,-94.6254,79.0,24.8,57.5,-9999.0,'111111111,111111111,999999991'
Anadarko,ioos:station:wmo:42373:1,2022-03-02T20:13:00Z,27.3539,-94.6254,79.0,24.4,58.1,-9999.0,'111111111,111111111,999999991'
Anadarko,ioos:station:wmo:42373:1,2022-03-02T20:33:00Z,27.3539,-94.6254,79.0,25.0,60.6,-9999.0,'111111111,111111111,999999991'
Anadarko,ioos:station:wmo:42373:1,2022-03-02T20:53:00Z,27.3539,-94.6254,79.0,24.6,63.4,-9999.0,'111111111,111111111,999999991'
Anadarko,ioos:station:wmo:42373:1,2022-03-02T21:13:00Z,27.3539,-94.6254,79.0,25.1,61.7,-9999.0,'111111111,111111111,999999991'
Anadarko,ioos:station:wmo:42373:1,2022-03-02T21:33:00Z,27.3539,-94.6254,79.0,26.8,61.4,-9999.0,'111111111,111111111,999999991'
Anadarko,ioos:station:wmo:42373:1,2022-03-02T21:53:00Z,27.3539,-94.6254,79.0,27.5,64.6,-9999.0,'111111111,111111111,999999991'
Anadarko,ioos:station:wmo:42373:1,2022-03-02T22:13:00Z,27.3539,-94.6254,79.0,27.5,66.0,-9999.0,'111111111,111111111,999999991'
Anadarko,ioos:station:wmo:42373:1,2022-03-02T22:33:00Z,27.3539,-94.6254,79.0,28.6,65.9,-9999.0,'111111111,111111111,999999991'
Anadarko,ioos:station:wmo:42373:1,2022-03-02T22:53:00Z,27.3539,-94.6254,79.0,29.0,66.4,-9999.0,'111111111,111111111,999999991'
Anadarko,ioos:station:wmo:42373:1,2022-03-02T23:13:00Z,27.3539,-94.6254,79.0,28.0,67.1,-9999.0,'111111111,111111111,999999991'
Anadarko,ioos:station:wmo:42373:1,2022-03-02T23:33:00Z,27.3539,-94.6254,79.0,27.4,70.2,-9999.0,'111111111,111111111,999999991'
Anadarko,ioos:station:wmo:42373:1,2022-03-02T23:53:00Z,27.3539,-94.6254,79.0,26.2,68.5,-9999.0,'111111111,111111111,999999991'
Anadarko,ioos:station:wmo:42373:1,2022-03-03T00:13:00Z,27.3539,-94.6254,79.0,24.5,70.5,-9999.0,'111111111,111111111,999999991'
Anadarko,ioos:station:wmo:42373:1,2022-03-03T00:33:00Z,27.3539,-94.6254,79.0,25.0,70.1,-9999.0,'111111111,111111111,999999991'
Anadarko,ioos:station:wmo:42373:1,2022-03-03T00:53:00Z,27.3539,-94.6254,79.0,26.3,71.6,-9999.0,'111111111,111111111,999999991'
Anadarko,ioos:station:wmo:42373:1,2022-03-03T01:13:00Z,27.3539,-94.6254,79.0,27.3,76.4,-9999.0,'111111111,111111111,999999991'
Anadarko,ioos:station:wmo:42373:1,2022-03-03T01:33:00Z,27.3539,-94.6254,79.0,26.6,77.8,-9999.0,'111111111,111111111,999999991'
Anadarko,ioos:station:wmo:42373:1,2022-03-03T01:53:00Z,27.3539,-94.6254,79.0,27.2,77.0,-9999.0,'111111111,111111111,999999991'
Anadarko,ioos:station:wmo:42373:1,2022-03-03T02:13:00Z,27.3539,-94.6254,79.0,27.2,77.9,-9999.0,'111111111,111111111,999999991'
Anadarko,ioos:station:wmo:42373:1,2022-03-03T02:33:00Z,27.3539,-94.6254,79.0,26.2,75.9,-9999.0,'111111111,111111111,999999991'
Anadarko,ioos:station:wmo:42373:1,2022-03-03T02:53:00Z,27.3539,-94.6254,79.0,25.3,76.7,-9999.0,'111111111,111111111,999999991'
Anadarko,ioos:station:wmo:42373:1,2022-03-03T03:13:00Z,27.3539,-94.6254,79.0,25.9,79.1,-9999.0,'111111111,111111111,999999991'
Anadarko,ioos:station:wmo:42373:1,2022-03-03T03:33:00Z,27.3539,-94.6254,79.0,25.3,81.8,-9999.0,'111111111,111111111,999999991'
Anadarko,ioos:station:wmo:42373:1,2022-03-03T03:53:00Z,27.3539,-94.6254,79.0,24.5,89.3,-9999.0,'111111111,111111111,999999991'
Anadarko,ioos:station:wmo:42373:1,2022-03-03T04:13:00Z,27.3539,-94.6254,79.0,24.9,85.8,-9999.0,'111111111,111111111,999999991'
Anadarko,ioos:station:wmo:42373:1,2022-03-03T04:33:00Z,27.3539,-94.6254,79.0,24.7,84.2,-9999.0,'111111111,111111111,999999991'
Anadarko,ioos:station:wmo:42373:1,2022-03-03T04:53:00Z,27.3539,-94.6254,79.0,24.4,81.0,-9999.0,'111111111,111111111,999999991'
Anadarko,ioos:station:wmo:42373:1,2022-03-03T05:13:00Z,27.3539,-94.6254,79.0,24.1,81.9,-9999.0,'111111111,111111111,999999991'
Anadarko,ioos:station:wmo:42373:1,2022-03-03T05:33:00Z,27.3539,-94.6254,79.0,23.4,85.1,-9999.0,'111111111,111111111,999999991'
Anadarko,ioos:station:wmo:42373:1,2022-03-03T05:53:00Z,27.3539,-94.6254,79.0,23.4,86.3,-9999.0,'111111111,111111111,999999991'
Anadarko,ioos:station:wmo:42373:1,2022-03-03T06:13:00Z,27.3539,-94.6254,79.0,22.2,84.3,-9999.0,'111111111,111111111,999999991'
Anadarko,ioos:station:wmo:42373:1,2022-03-03T06:33:00Z,27.3539,-94.6254,79.0,22.2,84.8,-9999.0,'111111111,111111111,999999991'
Anadarko,ioos:station:wmo:42373:1,2022-03-03T06:53:00Z,27.3539,-94.6254,79.0,21.4,84.6,-9999.0,'111111111,111111111,999999991'
Anadarko,ioos:station:wmo:42373:1,2022-03-03T07:13:00Z,27.3539,-94.6254,79.0,22.0,82.4,-9999.0,'111111111,111111111,999999991'
Anadarko,ioos:station:wmo:42373:1,2022-03-03T07:33:00Z,27.3539,-94.6254,79.0,21.5,88.7,-9999.0,'111111111,111111111,999999991'
Anadarko,ioos:station:wmo:42373:1,2022-03-03T07:53:00Z,27.3539,-94.6254,79.0,20.9,88.4,-9999.0,'111111111,111111111,999999991'
Anadarko,ioos:station:wmo:42373:1,2022-03-03T08:13:00Z,27.3539,-94.6254,79.0,19.7,85.6,-9999.0,'111111111,111111111,999999991'
Anadarko,ioos:station:wmo:42373:1,2022-03-03T08:33:00Z,27.3539,-94.6254,79.0,20.9,78.7,-9999.0,'111111111,111111111,999999991'
Anadarko,ioos:station:wmo:42373:1,2022-03-03T08:53:00Z,27.3539,-94.6254,79.0,21.1,79.9,-9999.0,'111111111,111111111,999999991'
Anadarko,ioos:station:wmo:42373:1,2022-03-03T09:13:00Z,27.3539,-94.6254,79.0,21.8,80.8,-9999.0,'111111111,111111111,999999991'
Anadarko,ioos:station:wmo:42373:1,2022-03-03T09:33:00Z,27.3539,-94.6254,79.0,21.5,80.4,-9999.0,'111111111,111111111,999999991'
Anadarko,ioos:station:wmo:42373:1,2022-03-03T09:53:00Z,27.3539,-94.6254,79.0,21.9,72.1,-9999.0,'111111111,111111111,999999991'
Anadarko,ioos:station:wmo:42373:1,2022-03-03T10:13:00Z,27.3539,-94.6254,79.0,21.9,71.3,-9999.0,'111111111,111111111,999999991'
Anadarko,ioos:station:wmo:42373:1,2022-03-03T10:33:00Z,27.3539,-94.6254,79.0,22.1,69.4,-9999.0,'111111111,111111111,999999991'
Anadarko,ioos:station:wmo:42373:1,2022-03-03T10:53:00Z,27.3539,-94.6254,79.0,22.7,64.4,-9999.0,'111111111,111111111,999999991'
Anadarko,ioos:station:wmo:42373:1,2022-03-03T11:13:00Z,27.3539,-94.6254,79.0,20.6,65.7,-9999.0,'111111111,111111111,999999991'
Anadarko,ioos:station:wmo:42373:1,2022-03-03T11:33:00Z,27.3539,-94.6254,79.0,19.6,62.4,-9999.0,'111111111,111111111,999999991'
Anadarko,ioos:station:wmo:42373:1,2022-03-03T11:53:00Z,27.3539,-94.6254,79.0,17.8,62.6,-9999.0,'111111111,111111111,999999991'
Anadarko,ioos:station:wmo:42373:1,2022-03-03T12:13:00Z,27.3539,-94.6254,79.0,19.1,61.8,-9999.0,'111111111,111111111,999999991'
Anadarko,ioos:station:wmo:42373:1,2022-03-03T12:33:00Z,27.3539,-94.6254,79.0,19.8,55.3,-9999.0,'111111111,111111111,999999991'
Anadarko,ioos:station:wmo:42373:1,2022-03-03T12:53:00Z,27.3539,-94.6254,79.0,18.9,52.1,-9999.0,'111111111,111111111,999999991'
Anadarko,ioos:station:wmo:42373:1,2022-03-03T13:13:00Z,27.3539,-94.6254,79.0,18.7,52.4,-9999.0,'111111111,111111111,999999991'
Anadarko,ioos:station:wmo:42373:1,2022-03-03T13:33:00Z,27.3539,-94.6254,79.0,20.1,50.0,-9999.0,'111111111,111111111,999999991'
Anadarko,ioos:station:wmo:42373:1,2022-03-03T13:53:00Z,27.3539,-94.6254,79.0,20.2,54.7,-9999.0,'111111111,111111111,999999991'